TimeCDT,TemperatureF,Dew PointF,Humidity,Sea Level PressureIn,VisibilityMPH,Wind Direction,Wind SpeedMPH,Gust SpeedMPH,PrecipitationIn,Events,Conditions,WindDirDegrees,DateUTC
12:15 AM,66.2,66.2,100,29.93,10.0,West,4.6,-,N/A,,Clear,270,2013-06-16 05:15:00
12:35 AM,66.2,64.4,94,29.93,10.0,Calm,Calm,-,N/A,,Clear,0,2013-06-16 05:35:00
12:55 AM,66.2,64.4,94,29.93,10.0,SSW,5.8,-,N/A,,Clear,200,2013-06-16 05:55:00
1:15 AM,66.2,64.4,94,29.94,10.0,SW,5.8,-,N/A,,Clear,220,2013-06-16 06:15:00
1:35 AM,66.2,64.4,94,29.93,10.0,WNW,4.6,-,N/A,,Clear,290,2013-06-16 06:35:00
1:55 AM,64.4,62.6,94,29.93,10.0,Calm,Calm,-,N/A,,Clear,0,2013-06-16 06:55:00
2:15 AM,64.4,62.6,94,29.92,-9999.0,SSE,6.9,-,N/A,,Unknown,160,2013-06-16 07:15:00
2:35 AM,64.4,64.4,100,29.93,9.0,South,4.6,-,N/A,,Clear,180,2013-06-16 07:35:00
2:55 AM,64.4,62.6,94,29.93,7.0,SSW,4.6,-,N/A,,Clear,210,2013-06-16 07:55:00
3:15 AM,62.6,62.6,100,29.93,5.0,SSW,3.5,-,N/A,,Clear,200,2013-06-16 08:15:00
3:35 AM,62.6,62.6,100,29.94,4.0,SSW,3.5,-,N/A,,Clear,200,2013-06-16 08:35:00
3:55 AM,62.6,62.6,100,29.94,2.5,South,3.5,-,N/A,,Clear,190,2013-06-16 08:55:00
4:15 AM,62.6,62.6,100,29.95,2.5,SW,4.6,-,N/A,,Clear,220,2013-06-16 09:15:00
4:35 AM,62.6,62.6,100,29.95,0.5,SSW,3.5,-,N/A,,Mist,210,2013-06-16 09:35:00
4:55 AM,60.8,60.8,100,29.95,0.2,SW,3.5,-,N/A,Fog,Fog,220,2013-06-16 09:55:00
5:15 AM,60.8,60.8,100,29.96,0.2,Calm,Calm,-,N/A,Fog,Fog,0,2013-06-16 10:15:00
5:35 AM,60.8,60.8,100,29.96,0.2,Calm,Calm,-,N/A,Fog,Fog,0,2013-06-16 10:35:00
5:55 AM,60.8,60.8,100,29.96,0.2,SW,3.5,-,N/A,Fog,Fog,230,2013-06-16 10:55:00
6:15 AM,60.8,60.8,100,29.96,0.2,Calm,Calm,-,N/A,Fog,Fog,0,2013-06-16 11:15:00
6:35 AM,60.8,60.8,100,29.96,0.2,Calm,Calm,-,N/A,Fog,Fog,0,2013-06-16 11:35:00
6:55 AM,62.6,62.6,100,29.97,1.5,Calm,Calm,-,N/A,,Clear,0,2013-06-16 11:55:00
7:15 AM,64.4,64.4,100,29.97,4.0,Calm,Calm,-,N/A,,Clear,0,2013-06-16 12:15:00
7:35 AM,66.2,64.4,94,29.97,9.0,Calm,Calm,-,N/A,,Clear,0,2013-06-16 12:35:00
7:55 AM,68.0,64.4,88,29.98,10.0,Calm,Calm,-,N/A,,Clear,0,2013-06-16 12:55:00
8:15 AM,68.0,64.4,88,29.97,10.0,NW,4.6,-,N/A,,Clear,310,2013-06-16 13:15:00
8:35 AM,69.8,64.4,83,29.98,10.0,NW,3.5,-,N/A,,Clear,320,2013-06-16 13:35:00
8:55 AM,71.6,64.4,78,29.98,10.0,NW,4.6,-,N/A,,Clear,320,2013-06-16 13:55:00
9:15 AM,73.4,64.4,73,29.98,10.0,Calm,Calm,-,N/A,,Clear,0,2013-06-16 14:15:00
9:35 AM,75.2,60.8,61,29.98,10.0,NNW,4.6,-,N/A,,Clear,340,2013-06-16 14:35:00
9:55 AM,77.0,59.0,54,29.98,10.0,WNW,3.5,-,N/A,,Clear,300,2013-06-16 14:55:00
10:15 AM,77.0,53.6,44,29.99,10.0,NNW,6.9,-,N/A,,Clear,330,2013-06-16 15:15:00
10:35 AM,78.8,51.8,39,29.98,10.0,WNW,5.8,-,N/A,,Clear,290,2013-06-16 15:35:00
10:55 AM,78.8,50.0,36,29.98,10.0,NW,6.9,-,N/A,,Clear,310,2013-06-16 15:55:00
11:15 AM,80.6,48.2,32,29.98,10.0,NW,8.1,-,N/A,,Clear,320,2013-06-16 16:15:00
11:35 AM,80.6,48.2,32,29.98,10.0,NNW,9.2,-,N/A,,Clear,330,2013-06-16 16:35:00
11:55 AM,80.6,46.4,30,29.99,10.0,NW,9.2,17.3,N/A,,Clear,320,2013-06-16 16:55:00
12:15 PM,80.6,50.0,34,29.99,10.0,Variable,4.6,12.7,N/A,,Clear,0,2013-06-16 17:15:00
12:35 PM,80.6,48.2,32,29.98,10.0,NNE,9.2,16.1,N/A,,Clear,30,2013-06-16 17:35:00
12:55 PM,80.6,48.2,32,29.99,10.0,Variable,6.9,12.7,N/A,,Clear,0,2013-06-16 17:55:00
1:15 PM,82.4,48.2,30,29.99,10.0,NNW,8.1,13.8,N/A,,Clear,330,2013-06-16 18:15:00
1:35 PM,82.4,48.2,30,29.98,10.0,Variable,4.6,16.1,N/A,,Clear,0,2013-06-16 18:35:00
1:55 PM,82.4,48.2,30,29.97,10.0,Variable,4.6,11.5,N/A,,Clear,0,2013-06-16 18:55:00
2:15 PM,82.4,48.2,30,29.97,10.0,NE,6.9,-,N/A,,Clear,40,2013-06-16 19:15:00
2:35 PM,82.4,48.2,30,29.97,10.0,NNE,9.2,-,N/A,,Clear,30,2013-06-16 19:35:00
2:55 PM,84.2,48.2,29,29.98,10.0,NW,8.1,17.3,N/A,,Clear,320,2013-06-16 19:55:00
3:15 PM,84.2,48.2,29,29.98,10.0,NNW,10.4,-,N/A,,Clear,330,2013-06-16 20:15:00
3:35 PM,84.2,46.4,27,29.97,10.0,Calm,Calm,15.0,N/A,,Clear,0,2013-06-16 20:35:00
3:55 PM,84.2,48.2,29,29.97,10.0,NW,11.5,-,N/A,,Clear,310,2013-06-16 20:55:00
4:15 PM,84.2,48.2,29,29.97,10.0,WSW,5.8,-,N/A,,Clear,240,2013-06-16 21:15:00
4:35 PM,86.0,48.2,27,29.97,10.0,WNW,8.1,17.3,N/A,,Clear,290,2013-06-16 21:35:00
4:55 PM,84.2,46.4,27,29.96,10.0,WNW,10.4,-,N/A,,Clear,300,2013-06-16 21:55:00
5:15 PM,86.0,48.2,27,29.96,10.0,West,12.7,19.6,N/A,,Clear,270,2013-06-16 22:15:00
5:35 PM,84.2,48.2,29,29.96,10.0,West,11.5,-,N/A,,Clear,280,2013-06-16 22:35:00
5:55 PM,84.2,48.2,29,29.94,10.0,WNW,9.2,-,N/A,,Clear,300,2013-06-16 22:55:00
6:15 PM,82.4,50.0,32,29.95,10.0,WSW,11.5,-,N/A,,Clear,250,2013-06-16 23:15:00
6:35 PM,82.4,50.0,32,29.94,10.0,WSW,12.7,-,N/A,,Clear,250,2013-06-16 23:35:00
6:55 PM,82.4,50.0,32,29.94,10.0,WSW,13.8,-,N/A,,Clear,250,2013-06-16 23:55:00
7:15 PM,80.6,51.8,37,29.92,10.0,WSW,8.1,-,N/A,,Clear,250,2013-06-17 00:15:00
7:35 PM,80.6,53.6,39,29.91,10.0,SW,5.8,-,N/A,,Clear,230,2013-06-17 00:35:00
7:55 PM,80.6,53.6,39,29.92,10.0,WSW,6.9,-,N/A,,Partly Cloudy,250,2013-06-17 00:55:00
8:15 PM,77.0,55.4,47,29.94,10.0,West,9.2,-,N/A,,Mostly Cloudy,260,2013-06-17 01:15:00
8:35 PM,77.0,57.2,50,29.95,10.0,West,6.9,-,N/A,,Mostly Cloudy,260,2013-06-17 01:35:00
8:55 PM,75.2,55.4,50,29.94,10.0,West,6.9,-,N/A,,Partly Cloudy,270,2013-06-17 01:55:00
9:15 PM,73.4,57.2,57,29.94,10.0,WSW,5.8,-,N/A,,Clear,250,2013-06-17 02:15:00
9:35 PM,71.6,59.0,64,29.95,10.0,SW,8.1,-,N/A,,Clear,230,2013-06-17 02:35:00
9:55 PM,69.8,59.0,68,29.95,10.0,WSW,5.8,-,N/A,,Clear,240,2013-06-17 02:55:00
10:15 PM,68.0,59.0,73,29.96,10.0,SW,5.8,-,N/A,,Clear,230,2013-06-17 03:15:00
10:35 PM,68.0,57.2,68,29.96,10.0,WSW,5.8,-,N/A,,Clear,240,2013-06-17 03:35:00
10:55 PM,68.0,57.2,68,29.96,10.0,SW,4.6,-,N/A,,Clear,230,2013-06-17 03:55:00
11:15 PM,68.0,57.2,68,29.97,10.0,West,6.9,-,N/A,,Clear,260,2013-06-17 04:15:00
11:35 PM,68.0,57.2,68,29.97,10.0,West,3.5,-,N/A,,Clear,280,2013-06-17 04:35:00
11:55 PM,68.0,57.2,68,29.97,10.0,Calm,Calm,-,N/A,,Clear,0,2013-06-17 04:55:00